Tracking 19717 objects as of 24-Jun-2019
HD Live streaming from Space Station
objects crossing your sky now

MICROSAT-R DEB

Track MICROSAT-R DEB now!
10-day predictions


NORAD ID: 44221
Int'l Code: 2019-006CX
Perigee: 261.0 km
Apogee: 356.5 km
Inclination: 96.8 °
Period: 90.6 minutes
Semi major axis: 6679 km
RCS: Unknown
Launch date: January 24, 2019
Source: India (IND)
Launch site: SRIHARIKOTA (SRI)

Note: This is SATELLITE DEBRIS
aabbcc
Your satellite tracking list
Your tracking list is empty




NASA's NSSDC Master Catalog

Two Line Element Set (TLE):
1 44221U 19006CX  19175.19830447  .00069028  36280-5  18357-3 0  9994
2 44221  96.7844  87.8925 0071496 352.1917   7.7927 15.90246955  8812
Source of the keplerian elements: AFSPC